date,City,No. Stations,Air Quality,Index Value,Prominent Pollutant
2020-09-04,Kohima,1.0,Satisfactory,57,PM10
2020-09-05,Kohima,1.0,Good,49,PM10
2020-09-06,Kohima,1.0,Satisfactory,61,PM10
2020-09-07,Kohima,1.0,Good,38,PM10
2020-09-08,Kohima,1.0,Good,45,PM10
2020-09-09,Kohima,1.0,Good,46,PM10
2020-09-10,Kohima,1.0,Good,47,PM10
2020-09-11,Kohima,1.0,Good,50,PM10
2020-09-12,Kohima,1.0,Good,40,PM10
2020-09-13,Kohima,1.0,Satisfactory,61,PM10
2020-09-14,Kohima,1.0,Good,42,PM10
2020-09-15,Kohima,1.0,Good,38,PM10
2020-09-17,Kohima,1.0,Good,35,PM10
2020-09-18,Kohima,1.0,Good,35,PM10
2020-09-19,Kohima,1.0,Satisfactory,51,PM2.5
2020-09-20,Kohima,1.0,Good,34,PM10
2020-09-21,Kohima,1.0,Good,20,PM10
2020-09-24,Kohima,1.0,Good,38,PM10
2020-09-25,Kohima,1.0,Good,34,PM10
2020-09-26,Kohima,1.0,Satisfactory,63,PM10
2020-09-27,Kohima,1.0,Good,27,PM10
2020-09-28,Kohima,1.0,Good,47,PM10
2020-09-29,Kohima,1.0,Good,42,PM10
2020-09-30,Kohima,1.0,Satisfactory,54,PM10
2020-10-01,Kohima,1.0,Satisfactory,71,PM10
2020-10-02,Kohima,1.0,Good,33,PM10
2020-10-03,Kohima,1.0,Good,46,PM10
2020-10-04,Kohima,1.0,Good,45,PM10
2020-10-05,Kohima,1.0,Good,29,PM10
2020-10-06,Kohima,1.0,Good,22,PM2.5
2020-10-07,Kohima,1.0,Good,40,PM10
2020-10-08,Kohima,1.0,Satisfactory,60,PM10
2020-10-09,Kohima,1.0,Satisfactory,57,PM10
2020-10-10,Kohima,1.0,Satisfactory,78,PM10
2020-10-11,Kohima,1.0,Satisfactory,53,PM10
2020-10-12,Kohima,1.0,Satisfactory,64,PM10
2020-10-13,Kohima,1.0,Satisfactory,56,PM10
2020-10-14,Kohima,1.0,Satisfactory,63,PM10
2020-10-15,Kohima,1.0,Satisfactory,55,PM10
2020-10-16,Kohima,1.0,Good,47,PM10
2020-10-17,Kohima,1.0,Satisfactory,72,PM10
2020-10-18,Kohima,1.0,Satisfactory,63,PM10
2020-10-19,Kohima,1.0,Good,36,PM10
2020-10-20,Kohima,1.0,Satisfactory,83,PM10
2020-10-21,Kohima,1.0,Satisfactory,78,PM10
2020-10-22,Kohima,1.0,Satisfactory,60,PM10
2020-10-23,Kohima,1.0,Good,31,PM2.5
2020-10-25,Kohima,1.0,Good,37,PM10
2020-10-27,Kohima,1.0,Satisfactory,71,PM10
2020-10-28,Kohima,1.0,Satisfactory,61,PM10
2020-10-29,Kohima,1.0,Satisfactory,61,PM10
2020-10-30,Kohima,1.0,Satisfactory,65,PM10
2020-10-31,Kohima,1.0,Good,38,PM10
2020-11-01,Kohima,1.0,Good,38,PM2.5
2020-11-02,Kohima,1.0,Good,33,PM2.5
2020-11-03,Kohima,1.0,Satisfactory,53,PM10
2020-11-04,Kohima,1.0,Satisfactory,100,PM10
2020-11-05,Kohima,1.0,Moderate,107,PM10
2020-11-06,Kohima,1.0,Moderate,102,PM10
2020-11-07,Kohima,1.0,Satisfactory,87,PM10
2020-11-08,Kohima,1.0,Satisfactory,56,PM10
2020-11-09,Kohima,1.0,Good,47,PM10
2020-11-10,Kohima,1.0,Satisfactory,63,PM10
2020-11-12,Kohima,1.0,Satisfactory,68,PM10
2020-11-13,Kohima,1.0,Satisfactory,65,PM10
2020-11-14,Kohima,1.0,Satisfactory,70,PM10
2020-11-15,Kohima,1.0,Satisfactory,51,PM10
2020-11-16,Kohima,1.0,Good,35,PM10
2020-11-17,Kohima,1.0,Satisfactory,80,PM10
2020-11-18,Kohima,1.0,Moderate,107,PM10
2020-11-19,Kohima,1.0,Moderate,108,PM2.5
2020-11-21,Kohima,1.0,Satisfactory,87,PM10
2020-11-22,Kohima,1.0,Moderate,156,PM2.5
2020-11-24,Kohima,1.0,Satisfactory,94,PM10
2020-11-25,Kohima,1.0,Satisfactory,68,PM10
2020-11-26,Kohima,1.0,Satisfactory,78,PM10
2020-11-28,Kohima,1.0,Moderate,121,PM10
2020-11-29,Kohima,1.0,Satisfactory,62,PM10
2020-11-30,Kohima,1.0,Satisfactory,51,PM10
2020-12-01,Kohima,1.0,Satisfactory,74,PM10
2020-12-02,Kohima,1.0,Satisfactory,76,PM10
2020-12-04,Kohima,1.0,Satisfactory,71,PM10
2020-12-05,Kohima,1.0,Satisfactory,91,PM10
2020-12-06,Kohima,1.0,Satisfactory,75,PM10
2020-12-07,Kohima,1.0,Satisfactory,91,PM2.5
2020-12-08,Kohima,1.0,Moderate,106,PM10
2020-12-09,Kohima,1.0,Satisfactory,90,PM2.5
2020-12-10,Kohima,1.0,Satisfactory,94,PM2.5
2020-12-11,Kohima,1.0,Satisfactory,92,PM10
2020-12-12,Kohima,1.0,Moderate,111,PM2.5
2020-12-13,Kohima,1.0,Satisfactory,87,PM2.5
2020-12-14,Kohima,1.0,Satisfactory,82,PM2.5
2020-12-15,Kohima,1.0,Satisfactory,82,PM10
2020-12-16,Kohima,1.0,Satisfactory,92,PM10
2020-12-17,Kohima,1.0,Satisfactory,99,PM2.5
2020-12-18,Kohima,1.0,Moderate,115,PM2.5
2020-12-19,Kohima,1.0,Moderate,127,PM2.5
2020-12-20,Kohima,1.0,Satisfactory,85,PM2.5
2020-12-21,Kohima,1.0,Satisfactory,58,PM10
2020-12-22,Kohima,1.0,Satisfactory,76,PM10
2020-12-23,Kohima,1.0,Satisfactory,68,PM10
2020-12-24,Kohima,1.0,Satisfactory,69,PM10
2020-12-25,Kohima,1.0,Satisfactory,67,PM10
2020-12-26,Kohima,1.0,Good,48,PM10
2020-12-27,Kohima,1.0,Satisfactory,59,PM10
2020-12-28,Kohima,1.0,Satisfactory,66,PM10
2020-12-29,Kohima,1.0,Satisfactory,63,PM10
2020-12-30,Kohima,1.0,Satisfactory,64,PM10
2020-12-31,Kohima,1.0,Satisfactory,65,PM10
2021-01-01,Kohima,1.0,Satisfactory,59,PM2.5
2021-01-02,Kohima,1.0,Good,35,PM10
2021-01-03,Kohima,1.0,Good,47,PM10
2021-01-04,Kohima,1.0,Satisfactory,54,PM10
2021-01-05,Kohima,1.0,Satisfactory,61,PM10
2021-01-06,Kohima,1.0,Satisfactory,76,PM10
2021-01-07,Kohima,1.0,Satisfactory,74,PM10
2021-01-08,Kohima,1.0,Satisfactory,89,PM10
2021-01-09,Kohima,1.0,Satisfactory,100,PM2.5
2021-01-10,Kohima,1.0,Moderate,116,PM2.5
2021-01-11,Kohima,1.0,Moderate,192,PM2.5
2021-01-12,Kohima,1.0,Poor,226,PM2.5
2021-01-13,Kohima,1.0,Moderate,177,PM10
2021-01-14,Kohima,1.0,Moderate,137,PM2.5
2021-01-15,Kohima,1.0,Moderate,143,PM2.5
2021-01-16,Kohima,1.0,Moderate,169,PM2.5
2021-01-17,Kohima,1.0,Moderate,143,PM2.5
2021-01-18,Kohima,1.0,Satisfactory,95,PM10
2021-01-19,Kohima,1.0,Moderate,115,PM10
2021-01-20,Kohima,1.0,Moderate,191,PM10
2021-01-21,Kohima,1.0,Poor,225,PM2.5
2021-01-22,Kohima,1.0,Moderate,169,PM2.5
2021-01-23,Kohima,1.0,Moderate,134,PM2.5
2021-01-24,Kohima,1.0,Moderate,128,PM2.5
2021-01-25,Kohima,1.0,Moderate,114,PM2.5
2021-01-26,Kohima,1.0,Moderate,124,PM10
2021-01-28,Kohima,1.0,Satisfactory,95,PM2.5
2021-01-29,Kohima,1.0,Satisfactory,97,PM10
2021-01-30,Kohima,1.0,Moderate,146,PM10
2021-01-31,Kohima,1.0,Moderate,138,PM10
2021-02-01,Kohima,1.0,Moderate,125,PM2.5
2021-02-02,Kohima,1.0,Moderate,127,PM10
2021-02-04,Kohima,1.0,Satisfactory,93,PM10
2021-02-05,Kohima,1.0,Satisfactory,88,PM10
2021-02-06,Kohima,1.0,Moderate,123,PM10
2021-02-07,Kohima,1.0,Satisfactory,99,PM10
2021-02-08,Kohima,1.0,Satisfactory,94,PM10
2021-02-09,Kohima,1.0,Moderate,138,PM10
2021-02-10,Kohima,1.0,Satisfactory,91,PM10
2021-02-11,Kohima,1.0,Satisfactory,99,PM10
2021-02-12,Kohima,1.0,Moderate,171,PM10
2021-02-13,Kohima,1.0,Moderate,114,PM10
2021-02-14,Kohima,1.0,Moderate,121,PM10
2021-02-15,Kohima,1.0,Moderate,111,PM10
2021-02-16,Kohima,1.0,Moderate,154,PM2.5
2021-02-17,Kohima,1.0,Moderate,150,PM2.5
2021-02-18,Kohima,1.0,Moderate,124,PM10
2021-02-19,Kohima,1.0,Moderate,119,PM10
2021-02-20,Kohima,1.0,Moderate,184,PM10
2021-02-21,Kohima,1.0,Moderate,198,PM10
2021-02-22,Kohima,1.0,Moderate,118,PM10
2021-02-23,Kohima,1.0,Moderate,150,PM10
2021-02-24,Kohima,1.0,Moderate,127,PM10
2021-02-25,Kohima,1.0,Poor,213,PM2.5
2021-02-26,Kohima,1.0,Poor,244,PM2.5
2021-02-27,Kohima,1.0,Moderate,188,PM2.5
2021-02-28,Kohima,1.0,Moderate,121,PM10
2021-03-01,Kohima,1.0,Moderate,123,PM10
2021-03-02,Kohima,1.0,Moderate,129,PM10
2021-03-03,Kohima,1.0,Moderate,131,PM10
2021-03-04,Kohima,1.0,Moderate,132,PM10
2021-03-05,Kohima,1.0,Moderate,154,PM10
2021-03-06,Kohima,1.0,Moderate,101,PM10
2021-03-07,Kohima,1.0,Satisfactory,96,PM2.5
2021-03-08,Kohima,1.0,Satisfactory,99,PM10
2021-03-10,Kohima,1.0,Moderate,125,PM10
2021-03-11,Kohima,1.0,Satisfactory,93,PM10
2021-03-12,Kohima,1.0,Moderate,104,PM10
2021-03-13,Kohima,1.0,Moderate,117,PM10
2021-03-19,Kohima,1.0,Moderate,194,PM2.5
2021-03-21,Kohima,1.0,Poor,206,PM2.5
2021-03-22,Kohima,1.0,Moderate,156,PM10
2021-03-23,Kohima,1.0,Moderate,186,PM10
2021-03-24,Kohima,1.0,Moderate,181,PM10
2021-03-25,Kohima,1.0,Moderate,171,PM10
2021-03-26,Kohima,1.0,Moderate,144,PM10
2021-03-27,Kohima,1.0,Poor,251,PM2.5
2021-03-29,Kohima,1.0,Poor,277,PM2.5
2021-04-03,Kohima,1.0,Moderate,110,PM10
2021-04-04,Kohima,1.0,Satisfactory,89,PM10
2021-04-05,Kohima,1.0,Satisfactory,100,PM10
2021-04-06,Kohima,1.0,Moderate,111,PM10
2021-04-07,Kohima,1.0,Moderate,114,PM10
2021-04-11,Kohima,1.0,Moderate,119,PM10
2021-04-12,Kohima,1.0,Satisfactory,98,PM10
2021-04-13,Kohima,1.0,Moderate,102,PM10
2021-04-14,Kohima,1.0,Satisfactory,94,PM10
2021-04-15,Kohima,1.0,Moderate,106,PM10
2021-04-16,Kohima,1.0,Moderate,102,PM10
2021-04-17,Kohima,1.0,Satisfactory,71,PM10
2021-04-18,Kohima,1.0,Satisfactory,73,PM10
2021-04-19,Kohima,1.0,Satisfactory,73,PM10
2021-04-20,Kohima,1.0,Moderate,128,PM10
2021-04-22,Kohima,1.0,Moderate,121,PM10
2021-04-23,Kohima,1.0,Moderate,101,PM10
2021-04-24,Kohima,1.0,Moderate,113,PM10
2021-04-25,Kohima,1.0,Satisfactory,91,PM10
2021-04-26,Kohima,1.0,Moderate,111,PM10
2021-04-27,Kohima,1.0,Moderate,127,PM10
2021-04-28,Kohima,1.0,Moderate,141,PM10
2021-04-29,Kohima,1.0,Moderate,121,PM10
2021-04-30,Kohima,1.0,Moderate,165,PM10
2021-05-01,Kohima,1.0,Moderate,116,PM10
2021-05-02,Kohima,1.0,Satisfactory,81,PM2.5
2021-05-03,Kohima,1.0,Satisfactory,89,PM10
2021-05-05,Kohima,1.0,Satisfactory,67,PM10
2021-05-06,Kohima,1.0,Satisfactory,70,PM10
2021-05-07,Kohima,1.0,Satisfactory,56,PM10
2021-05-08,Kohima,1.0,Satisfactory,69,PM10
2021-05-09,Kohima,1.0,Good,48,PM10
2021-05-10,Kohima,1.0,Satisfactory,59,PM2.5
2021-05-11,Kohima,1.0,Satisfactory,72,PM10
2021-05-12,Kohima,1.0,Satisfactory,58,PM10
2021-05-13,Kohima,1.0,Satisfactory,54,PM10
2021-05-14,Kohima,1.0,Good,46,PM10
2021-05-15,Kohima,1.0,Satisfactory,62,PM10
2021-05-16,Kohima,1.0,Satisfactory,55,PM2.5
2021-05-17,Kohima,1.0,Good,50,PM2.5
2021-05-18,Kohima,1.0,Satisfactory,62,PM2.5
2021-05-19,Kohima,1.0,Good,49,PM2.5
2021-05-20,Kohima,1.0,Good,30,PM2.5
2021-05-21,Kohima,1.0,Good,40,PM10
2021-05-22,Kohima,1.0,Good,44,PM10
2021-05-23,Kohima,1.0,Good,41,PM10
2021-05-24,Kohima,1.0,Good,37,PM10
2021-05-25,Kohima,1.0,Good,28,SO2
2021-05-26,Kohima,1.0,Good,29,SO2
2021-05-27,Kohima,1.0,Good,38,PM10
2021-05-28,Kohima,1.0,Good,49,PM10
2021-05-29,Kohima,1.0,Good,46,PM10
2021-05-30,Kohima,1.0,Satisfactory,53,PM10
2021-05-31,Kohima,1.0,Satisfactory,59,PM10
2021-06-01,Kohima,1.0,Good,45,PM10
2021-06-02,Kohima,1.0,Good,44,PM10
2021-06-03,Kohima,1.0,Good,49,PM10
2021-06-11,Kohima,1.0,Good,37,PM10
2021-06-12,Kohima,1.0,Good,33,PM10
2021-06-13,Kohima,1.0,Good,29,SO2
2021-06-14,Kohima,1.0,Good,31,PM10
2021-06-15,Kohima,1.0,Good,32,PM10
2021-06-16,Kohima,1.0,Good,38,PM10
2021-06-17,Kohima,1.0,Good,30,SO2
2021-06-18,Kohima,1.0,Good,30,SO2
2021-06-19,Kohima,1.0,Good,32,PM10
2021-06-20,Kohima,1.0,Good,30,SO2
2021-06-21,Kohima,1.0,Good,30,SO2
2021-06-22,Kohima,1.0,Good,35,PM10
2021-06-23,Kohima,1.0,Good,30,SO2
2021-06-24,Kohima,1.0,Good,36,PM10
2021-06-25,Kohima,1.0,Satisfactory,63,PM10
2021-06-26,Kohima,1.0,Satisfactory,52,PM10
2021-06-27,Kohima,1.0,Good,43,PM10
2021-06-28,Kohima,1.0,Good,32,SO2
2021-06-29,Kohima,1.0,Good,31,PM10
2021-06-30,Kohima,1.0,Good,37,PM10
2021-07-01,Kohima,1.0,Good,30,SO2
2021-07-02,Kohima,1.0,Satisfactory,58,PM10
2021-07-03,Kohima,1.0,Satisfactory,54,PM10
2021-07-04,Kohima,1.0,Good,43,PM10
2021-07-05,Kohima,1.0,Good,32,SO2
2021-07-06,Kohima,1.0,Good,48,PM10
2021-07-07,Kohima,1.0,Good,32,SO2
2021-07-08,Kohima,1.0,Good,37,PM10
2021-07-09,Kohima,1.0,Good,44,PM10
2021-07-10,Kohima,1.0,Good,32,SO2
2021-07-13,Kohima,1.0,Good,42,PM10
2021-07-14,Kohima,1.0,Good,32,SO2
2021-07-15,Kohima,1.0,Good,32,SO2
2021-07-16,Kohima,1.0,Good,41,PM10
2021-07-17,Kohima,1.0,Good,32,SO2
2021-07-18,Kohima,1.0,Good,32,SO2
2021-07-20,Kohima,1.0,Good,48,PM10
2021-07-21,Kohima,1.0,Good,38,PM10
2021-07-22,Kohima,1.0,Good,33,SO2
2021-07-23,Kohima,1.0,Good,33,SO2
2021-07-24,Kohima,1.0,Good,43,PM10
2021-07-25,Kohima,1.0,Good,32,SO2
2021-07-26,Kohima,1.0,Good,33,SO2
2021-07-27,Kohima,1.0,Good,33,SO2
2021-07-28,Kohima,1.0,Good,33,SO2
2021-07-29,Kohima,1.0,Good,33,SO2
2021-07-30,Kohima,1.0,Good,33,SO2
2021-07-31,Kohima,1.0,Good,34,SO2
2021-08-01,Kohima,1.0,Good,33,SO2
2021-08-02,Kohima,1.0,Good,33,SO2
2021-08-03,Kohima,1.0,Good,37,PM10
2021-08-04,Kohima,1.0,Good,35,PM10
2021-08-05,Kohima,1.0,Good,46,PM10
2021-08-06,Kohima,1.0,Good,47,PM10
2021-08-07,Kohima,1.0,Good,34,PM10
2021-08-08,Kohima,1.0,Good,35,PM10
2021-08-09,Kohima,1.0,Good,33,SO2
2021-08-10,Kohima,1.0,Good,37,PM10
2021-08-11,Kohima,1.0,Satisfactory,63,PM10
2021-08-13,Kohima,1.0,Satisfactory,59,PM10
2021-08-14,Kohima,1.0,Satisfactory,54,PM10
2021-08-15,Kohima,1.0,Satisfactory,58,PM10
2021-08-16,Kohima,1.0,Good,34,SO2
2021-08-17,Kohima,1.0,Good,40,PM10
2021-08-18,Kohima,1.0,Good,35,PM2.5
2021-08-19,Kohima,1.0,Good,38,PM10
2021-08-20,Kohima,1.0,Good,37,PM10
2021-08-21,Kohima,1.0,Good,37,PM10
2021-08-23,Kohima,1.0,Good,41,PM10
2021-08-24,Kohima,1.0,Satisfactory,56,PM10
2021-08-25,Kohima,1.0,Satisfactory,53,PM10
2021-08-26,Kohima,1.0,Satisfactory,63,PM10
2021-08-27,Kohima,1.0,Good,45,PM10
2021-08-28,Kohima,1.0,Satisfactory,68,PM10
2021-08-29,Kohima,1.0,Satisfactory,54,PM10
2021-08-30,Kohima,1.0,Good,44,PM10
2021-08-31,Kohima,1.0,Good,40,PM10
2021-09-01,Kohima,1.0,Satisfactory,64,PM10
2021-09-02,Kohima,1.0,Good,35,SO2
2021-09-03,Kohima,1.0,Good,35,SO2
2021-09-04,Kohima,1.0,Satisfactory,59,PM10
2021-09-05,Kohima,1.0,Good,49,PM10
2021-09-06,Kohima,1.0,Good,39,PM10
2021-09-07,Kohima,1.0,Good,45,PM10
2021-09-08,Kohima,1.0,Good,45,PM10
2021-09-09,Kohima,1.0,Good,47,PM10
2021-09-10,Kohima,1.0,Good,37,SO2
2021-09-11,Kohima,1.0,Good,40,SO2
2021-09-14,Kohima,1.0,Good,36,SO2
2021-09-15,Kohima,1.0,Satisfactory,56,PM10
2021-09-16,Kohima,1.0,Good,36,SO2
2021-09-18,Kohima,1.0,Good,43,PM10
2021-09-19,Kohima,1.0,Good,35,SO2
2021-09-20,Kohima,1.0,Good,36,SO2
2021-09-21,Kohima,1.0,Good,47,PM10
2021-09-22,Kohima,1.0,Good,45,PM10
2021-09-23,Kohima,1.0,Good,44,PM10
2021-09-24,Kohima,1.0,Good,48,PM10
2021-09-25,Kohima,1.0,Good,44,PM10
2021-09-26,Kohima,1.0,Good,37,SO2
2021-09-27,Kohima,1.0,Good,35,SO2
2021-09-28,Kohima,1.0,Good,37,PM10
2021-09-29,Kohima,1.0,Good,41,PM10
2021-09-30,Kohima,1.0,Good,38,PM10
2021-10-01,Kohima,1.0,Good,40,PM10
2021-10-05,Kohima,1.0,Good,36,SO2
2021-10-06,Kohima,1.0,Satisfactory,57,PM10
2021-10-07,Kohima,1.0,Satisfactory,73,PM10
2021-10-08,Kohima,1.0,Satisfactory,63,PM10
2021-10-09,Kohima,1.0,Satisfactory,59,PM10
2021-10-10,Kohima,1.0,Satisfactory,56,PM10
2021-10-11,Kohima,1.0,Good,48,PM10
2021-10-12,Kohima,1.0,Satisfactory,55,PM10
2021-10-13,Kohima,1.0,Good,47,PM10
2021-10-19,Kohima,1.0,Satisfactory,57,PM10
2021-10-20,Kohima,1.0,Good,37,SO2
2021-10-21,Kohima,1.0,Good,36,SO2
2021-10-22,Kohima,1.0,Satisfactory,59,PM10
2021-10-24,Kohima,1.0,Satisfactory,76,PM10
2021-10-25,Kohima,1.0,Satisfactory,68,PM10
2021-10-26,Kohima,1.0,Satisfactory,58,PM10
2021-10-27,Kohima,1.0,Satisfactory,64,PM10
2021-10-28,Kohima,1.0,Satisfactory,65,PM10
2021-10-29,Kohima,1.0,Satisfactory,64,PM10
2021-10-30,Kohima,1.0,Satisfactory,66,PM10
2021-11-01,Kohima,1.0,Satisfactory,55,PM10
2021-11-02,Kohima,1.0,Satisfactory,54,PM10
2021-11-03,Kohima,1.0,Good,50,PM10
2021-11-04,Kohima,1.0,Good,49,PM10
2021-11-05,Kohima,1.0,Satisfactory,59,PM10
2021-11-06,Kohima,1.0,Satisfactory,53,PM10
2021-11-07,Kohima,1.0,Satisfactory,55,PM10
2021-11-08,Kohima,1.0,Good,49,PM10
2021-11-09,Kohima,1.0,Satisfactory,55,PM10
2021-11-10,Kohima,1.0,Satisfactory,51,PM10
2021-11-11,Kohima,1.0,Satisfactory,71,PM10
2021-11-12,Kohima,1.0,Satisfactory,62,PM10
2021-11-13,Kohima,1.0,Satisfactory,74,PM10
2021-11-14,Kohima,1.0,Satisfactory,75,PM10
2021-11-15,Kohima,1.0,Satisfactory,74,PM10
2021-11-16,Kohima,1.0,Satisfactory,67,PM10
2021-11-17,Kohima,1.0,Satisfactory,66,PM10
2021-11-18,Kohima,1.0,Satisfactory,69,PM10
2021-11-19,Kohima,1.0,Satisfactory,63,PM10
2021-11-20,Kohima,1.0,Satisfactory,63,PM10
2021-11-21,Kohima,1.0,Satisfactory,70,PM10
2021-11-22,Kohima,1.0,Satisfactory,72,PM10
2021-11-23,Kohima,1.0,Satisfactory,90,PM10
2021-11-24,Kohima,1.0,Satisfactory,87,PM10
2021-11-25,Kohima,1.0,Satisfactory,94,PM2.5
2021-11-26,Kohima,1.0,Moderate,138,PM2.5
2021-11-27,Kohima,1.0,Moderate,116,PM2.5
2021-11-29,Kohima,1.0,Satisfactory,92,PM2.5
2021-11-30,Kohima,1.0,Satisfactory,89,PM10
2021-12-01,Kohima,1.0,Moderate,131,PM10
2021-12-02,Kohima,1.0,Moderate,124,PM10
2021-12-03,Kohima,1.0,Satisfactory,85,PM10
2021-12-04,Kohima,1.0,Satisfactory,78,PM10
2021-12-05,Kohima,1.0,Satisfactory,80,PM10
2021-12-06,Kohima,1.0,Satisfactory,69,PM10
2021-12-07,Kohima,1.0,Satisfactory,76,PM2.5
2021-12-08,Kohima,1.0,Satisfactory,63,PM2.5
2021-12-09,Kohima,1.0,Satisfactory,86,PM10
2021-12-10,Kohima,1.0,Satisfactory,80,PM10
2021-12-11,Kohima,1.0,Moderate,107,PM10
2021-12-12,Kohima,1.0,Satisfactory,97,PM2.5
2021-12-13,Kohima,1.0,Satisfactory,66,PM10
2021-12-14,Kohima,1.0,Satisfactory,62,PM10
2021-12-15,Kohima,1.0,Satisfactory,73,PM2.5
2021-12-16,Kohima,1.0,Satisfactory,79,PM10
2021-12-17,Kohima,1.0,Satisfactory,71,PM10
2021-12-18,Kohima,1.0,Satisfactory,62,PM10
2021-12-19,Kohima,1.0,Satisfactory,74,PM10
2021-12-20,Kohima,1.0,Satisfactory,68,PM10
2021-12-21,Kohima,1.0,Satisfactory,71,PM10
2021-12-22,Kohima,1.0,Satisfactory,78,PM10
2021-12-23,Kohima,1.0,Satisfactory,64,PM10
2021-12-24,Kohima,1.0,Satisfactory,63,PM10
2021-12-25,Kohima,1.0,Satisfactory,61,PM10
2021-12-26,Kohima,1.0,Good,45,PM10
2021-12-27,Kohima,1.0,Satisfactory,51,PM10
2021-12-28,Kohima,1.0,Good,47,PM10
2021-12-31,Kohima,1.0,Satisfactory,74,PM2.5
2022-01-01,Kohima,1.0,Satisfactory,74,PM2.5
2022-01-02,Kohima,1.0,Satisfactory,58,PM2.5
2022-01-03,Kohima,1.0,Satisfactory,55,PM10
2022-01-04,Kohima,1.0,Satisfactory,56,PM10
2022-01-05,Kohima,1.0,Satisfactory,87,PM2.5
2022-01-06,Kohima,1.0,Satisfactory,55,PM10
2022-01-07,Kohima,1.0,Satisfactory,54,PM10
2022-01-08,Kohima,1.0,Satisfactory,55,PM10
2022-01-09,Kohima,1.0,Satisfactory,54,PM10
2022-01-10,Kohima,1.0,Satisfactory,56,PM10
2022-01-11,Kohima,1.0,Satisfactory,72,PM10
2022-01-13,Kohima,1.0,Satisfactory,64,PM2.5
2022-01-14,Kohima,1.0,Satisfactory,76,PM10
2022-01-15,Kohima,1.0,Satisfactory,96,PM2.5
2022-01-16,Kohima,1.0,Satisfactory,64,PM2.5
2022-01-17,Kohima,1.0,Satisfactory,71,PM2.5
2022-01-18,Kohima,1.0,Satisfactory,74,PM10
2022-01-19,Kohima,1.0,Satisfactory,65,PM10
2022-01-20,Kohima,1.0,Satisfactory,72,PM2.5
2022-01-22,Kohima,1.0,Moderate,132,PM2.5
2022-01-23,Kohima,1.0,Satisfactory,93,PM2.5
2022-01-24,Kohima,1.0,Moderate,113,PM2.5
2022-01-25,Kohima,1.0,Moderate,108,PM2.5
2022-01-26,Kohima,1.0,Moderate,128,PM10
2022-01-28,Kohima,1.0,Moderate,118,PM10
2022-01-31,Kohima,1.0,Moderate,127,PM2.5
2022-02-01,Kohima,1.0,Moderate,160,PM2.5
2022-02-02,Kohima,1.0,Satisfactory,75,PM2.5
2022-02-03,Kohima,1.0,Moderate,108,PM10
2022-02-04,Kohima,1.0,Moderate,111,PM10
2022-02-05,Kohima,1.0,Good,49,PM10
2022-02-07,Kohima,1.0,Satisfactory,65,PM10
2022-02-08,Kohima,1.0,Satisfactory,97,PM10
2022-02-09,Kohima,1.0,Moderate,111,PM2.5
2022-02-12,Kohima,1.0,Moderate,129,PM2.5
2022-02-14,Kohima,1.0,Satisfactory,65,PM10
2022-02-15,Kohima,1.0,Satisfactory,73,PM10
2022-02-16,Kohima,1.0,Satisfactory,69,PM10
2022-02-17,Kohima,1.0,Satisfactory,85,PM10
2022-02-18,Kohima,1.0,Satisfactory,94,PM2.5
2022-02-20,Kohima,1.0,Satisfactory,90,PM10
2022-02-21,Kohima,1.0,Satisfactory,52,PM10
2022-02-22,Kohima,1.0,Moderate,107,PM10
2022-02-24,Kohima,1.0,Moderate,117,PM2.5
2022-02-25,Kohima,1.0,Moderate,146,PM2.5
2022-02-27,Kohima,1.0,Satisfactory,98,PM10
2022-02-28,Kohima,1.0,Satisfactory,98,PM10
2022-03-01,Kohima,1.0,Satisfactory,98,PM10
2022-03-02,Kohima,1.0,Moderate,112,PM10
2022-03-10,Kohima,1.0,Moderate,110,PM10
2022-03-11,Kohima,1.0,Moderate,115,PM10
2022-03-12,Kohima,1.0,Moderate,128,PM10
2022-03-13,Kohima,1.0,Moderate,123,PM10
2022-03-14,Kohima,1.0,Moderate,114,PM10
2022-03-15,Kohima,1.0,Moderate,124,PM10
2022-03-16,Kohima,1.0,Moderate,174,PM2.5
2022-03-17,Kohima,1.0,Moderate,181,PM2.5
2022-03-18,Kohima,1.0,Moderate,157,PM10
2022-03-19,Kohima,1.0,Moderate,156,PM10
2022-03-20,Kohima,1.0,Moderate,145,PM10
2022-03-21,Kohima,1.0,Moderate,120,PM10
2022-03-22,Kohima,1.0,Moderate,149,PM2.5
2022-03-23,Kohima,1.0,Moderate,153,PM10
2022-03-24,Kohima,1.0,Moderate,156,PM10
2022-03-25,Kohima,1.0,Satisfactory,90,PM10
2022-04-05,Kohima,1.0,Moderate,116,PM10
2022-04-06,Kohima,1.0,Moderate,117,PM10
2022-04-07,Kohima,1.0,Moderate,117,PM10
2022-04-08,Kohima,1.0,Moderate,118,PM10
2022-04-09,Kohima,1.0,Moderate,119,PM10
2022-04-10,Kohima,1.0,Moderate,114,PM2.5
2022-04-11,Kohima,1.0,Good,48,PM2.5
2022-04-12,Kohima,1.0,Satisfactory,76,PM10
2022-04-14,Kohima,1.0,Satisfactory,95,PM10
2022-04-15,Kohima,1.0,Satisfactory,71,PM10
2022-04-16,Kohima,1.0,Satisfactory,100,PM10
2022-04-17,Kohima,1.0,Satisfactory,79,PM10
2022-04-22,Kohima,1.0,Satisfactory,66,PM10
2022-04-23,Kohima,1.0,Satisfactory,79,PM10
2022-04-24,Kohima,1.0,Moderate,123,PM10
2022-04-25,Kohima,1.0,Moderate,129,PM10
2022-04-26,Kohima,1.0,Moderate,167,PM10
2022-04-27,Kohima,1.0,Satisfactory,99,PM10
2022-04-28,Kohima,1.0,Satisfactory,79,PM10
2022-04-29,Kohima,1.0,Moderate,115,PM10
2022-04-30,Kohima,1.0,Satisfactory,60,PM10
2022-05-01,Kohima,1.0,Satisfactory,75,PM10
2022-05-02,Kohima,1.0,Satisfactory,55,PM10
2022-05-03,Kohima,1.0,Satisfactory,67,PM10
2022-05-04,Kohima,1.0,Good,47,SO2
2022-05-05,Kohima,1.0,Satisfactory,51,PM10
2022-05-06,Kohima,1.0,Satisfactory,76,PM10
2022-05-07,Kohima,1.0,Satisfactory,77,PM10
2022-05-08,Kohima,1.0,Satisfactory,65,PM10
2022-05-09,Kohima,1.0,Satisfactory,63,PM10
2022-05-10,Kohima,1.0,Satisfactory,59,PM10
2022-05-11,Kohima,1.0,Good,47,SO2
2022-05-12,Kohima,1.0,Good,49,SO2
2022-05-13,Kohima,1.0,Good,49,SO2
2022-05-14,Kohima,1.0,Good,48,SO2
2022-05-15,Kohima,1.0,Satisfactory,59,PM10
2022-05-16,Kohima,1.0,Good,48,PM10
2022-05-17,Kohima,1.0,Good,50,PM10
2022-05-18,Kohima,1.0,Good,47,SO2
2022-05-19,Kohima,1.0,Satisfactory,61,PM10
2022-05-20,Kohima,1.0,Satisfactory,79,PM10
2022-05-21,Kohima,1.0,Satisfactory,67,PM10
2022-05-22,Kohima,1.0,Satisfactory,71,PM10
2022-05-23,Kohima,1.0,Satisfactory,81,PM10
2022-05-24,Kohima,1.0,Satisfactory,99,PM10
2022-05-25,Kohima,1.0,Satisfactory,85,PM10
2022-05-26,Kohima,1.0,Good,49,PM10
2022-05-27,Kohima,1.0,Moderate,109,PM10
2022-05-28,Kohima,1.0,Moderate,104,PM10
2022-05-29,Kohima,1.0,Satisfactory,94,PM10
2022-05-30,Kohima,1.0,Satisfactory,90,PM10
2022-05-31,Kohima,1.0,Satisfactory,83,PM10
2022-06-01,Kohima,1.0,Good,50,SO2
2022-06-02,Kohima,1.0,Satisfactory,51,SO2
2022-06-03,Kohima,1.0,Satisfactory,53,SO2
2022-06-04,Kohima,1.0,Satisfactory,79,PM10
2022-06-05,Kohima,1.0,Satisfactory,79,PM10
2022-06-06,Kohima,1.0,Satisfactory,73,PM10
2022-06-07,Kohima,1.0,Satisfactory,85,PM10
2022-06-09,Kohima,1.0,Satisfactory,77,PM10
2022-06-10,Kohima,1.0,Satisfactory,86,PM10
2022-06-11,Kohima,1.0,Satisfactory,75,PM10
2022-06-12,Kohima,1.0,Moderate,123,PM10
2022-06-13,Kohima,1.0,Satisfactory,67,PM10
2022-06-14,Kohima,1.0,Moderate,112,PM10
2022-06-15,Kohima,1.0,Satisfactory,65,PM10
2022-06-17,Kohima,1.0,Good,50,SO2
2022-06-18,Kohima,1.0,Good,50,SO2
2022-06-19,Kohima,1.0,Good,49,SO2
2022-06-20,Kohima,1.0,Satisfactory,51,PM10
2022-06-21,Kohima,1.0,Good,50,SO2
2022-06-22,Kohima,1.0,Satisfactory,54,PM10
2022-06-23,Kohima,1.0,Satisfactory,53,SO2
2022-06-25,Kohima,1.0,Satisfactory,56,SO2
2022-06-26,Kohima,1.0,Satisfactory,52,SO2
2022-06-27,Kohima,1.0,Satisfactory,70,PM10
2022-06-28,Kohima,1.0,Satisfactory,71,PM10
2022-06-29,Kohima,1.0,Satisfactory,57,PM10
2022-06-30,Kohima,1.0,Satisfactory,56,SO2
2022-07-01,Kohima,1.0,Satisfactory,67,PM10
2022-07-02,Kohima,1.0,Satisfactory,58,SO2
2022-07-03,Kohima,1.0,Satisfactory,51,SO2
2022-07-04,Kohima,1.0,Satisfactory,55,SO2
2022-07-05,Kohima,1.0,Satisfactory,51,SO2
2022-07-06,Kohima,1.0,Satisfactory,53,SO2
2022-07-07,Kohima,1.0,Satisfactory,60,PM10
2022-07-08,Kohima,1.0,Satisfactory,51,SO2
2022-07-09,Kohima,1.0,Satisfactory,55,PM10
2022-07-10,Kohima,1.0,Satisfactory,54,SO2
2022-07-11,Kohima,1.0,Satisfactory,57,SO2
2022-07-12,Kohima,1.0,Satisfactory,51,SO2
2022-07-13,Kohima,1.0,Satisfactory,52,SO2
2022-07-14,Kohima,1.0,Satisfactory,51,SO2
2022-07-15,Kohima,1.0,Good,50,SO2
2022-07-20,Kohima,1.0,Satisfactory,52,PM10
2022-07-21,Kohima,1.0,Good,48,SO2
2022-07-22,Kohima,1.0,Good,50,SO2
2022-07-23,Kohima,1.0,Satisfactory,53,SO2
2022-07-24,Kohima,1.0,Satisfactory,53,SO2
2022-07-25,Kohima,1.0,Satisfactory,52,SO2
2022-07-26,Kohima,1.0,Satisfactory,52,SO2
2022-07-27,Kohima,1.0,Satisfactory,53,SO2
2022-07-28,Kohima,1.0,Satisfactory,52,SO2
2022-07-29,Kohima,1.0,Satisfactory,53,SO2
2022-07-30,Kohima,1.0,Satisfactory,52,SO2
2022-07-31,Kohima,1.0,Satisfactory,53,SO2